Regional Weather Roundup
Issued by NWS Grand Forks, ND

Home | Current Version | Previous Version | Text Only | Print | Product List | Glossary Off
Versions: 1 2 3 4 5 6 7 8 9 10 11 12 13 14 15 16 17 18 19 20 21 22 23 24 25 26 27 28 29 30 31 32 33 34 35 36 37 38 39 40 41 42 43 44 45 46 47 48 49 50

000
ASUS43 KFGF 271031
RWRFGF
PRAIRIE TO PINES  WEATHER ROUNDUP
NATIONAL WEATHER SERVICE EASTERN NORTH DAKOTA/GRAND FORKS ND
500 AM CDT WED AUG 27 2014

 **SATELLITE DATA USED TO AUGMENT SKY COVER AT AUTOMATED STATIONS**
 *****  WEATHER ACROSS EASTERN NORTH DAKOTA  *****

CITY           SKY/WX    TMP DP  RH WIND       PRES   REMARKS
GRAND FORKS    CLEAR     49  48  97 S3        30.16S
GRAND FRKS AFB CLEAR     50  50  99 W2        30.16F
GRAND FRKS NWS   N/A     48 N/A N/A MISG        N/A
DEVILS LAKE    CLEAR     55  48  76 W6        30.15S
FARGO          CLEAR     52  52 100 CALM      30.18S
WAHPETON ARPT  CLOUDY    59  55  88 CALM      30.18F
$$

 ***** WEATHER ACROSS CENTRAL AND WESTERN NORTH DAKOTA  *****

CITY           SKY/WX    TMP DP  RH WIND       PRES   REMARKS
BISMARCK       FOG       50  50 100 CALM      30.18S VSB 1/4
MINOT          CLEAR     54  50  86 S6        30.13F
JAMESTOWN      FOG       50  48  93 CALM      30.17S VSB 1/2
MINOT AFB      CLEAR     50  50 100 S5        30.13S FOG
GARRISON         N/A     48  47  96 CALM      30.15S
WILLISTON      CLEAR     54  52  93 S5        30.12S
DICKINSON      CLEAR     49  47  93 SE8       30.14F
HETTINGER      FOG       49  48  97 SE3       30.17R VSB 1/4
$$

 *****  OTHER AIRPORT OBSERVATIONS IN OUR AREA  *****

CITY           SKY/WX    TMP DP  RH WIND       PRES   REMARKS
WALHALLA       FAIR      45  45 100 CALM      30.15S
GRAFTON AIRPOR FAIR      48  48 100 W5        30.15S FOG
VALLEY CITY AR CLOUDY    50  50 100 S3        30.18F
CANDO          FOG       46  45  93 CALM      30.16S VSB<1/4
CAVALIER APRT  FAIR      46  45  93 NW3       30.15S
GWINNER        CLOUDY    57  57 100 E5        30.19S
ROLLA          FAIR      50  50 100 SW6       30.16S
 ***** THE ABOVE OBSERVATIONS ARE NON NWS ARE NOT QUALITY
       CONTROLLED AND MAY MIS-REPORT RAIN FOR SNOW...
$$

  *****  WEATHER ACROSS NORTHERN MINNESOTA  *****

CITY           SKY/WX    TMP DP  RH WIND       PRES   REMARKS
FLAG ISLAND    MOCLDY    57  52  82 SW10      30.14S
WARROAD        CLEAR     46  45  93 CALM      30.17S
ROSEAU         CLEAR     45  39  81 CALM      30.16S
HALLOCK        CLEAR     45  43  93 SE5       30.15S FOG
THF RVR FALLS  CLOUDY    50  48  93 S6        30.17F VSB 1/4
BAUDETTE       MOCLDY    45  44  97 CALM      30.18S
WASKISH        MOCLDY    48  46  93 CALM      30.18S
CROOKSTON      CLEAR     46  46 100 S5        30.18S FOG
$$
  *****  WEATHER ACROSS CENTRAL AND WEST MINNESOTA  *****

CITY           SKY/WX    TMP DP  RH WIND       PRES   REMARKS
FOSSTON        FOG       43  43 100 CALM      30.19F VSB 3/4
BEMIDJI        PTCLDY    43  43  99 CALM      30.19S FOG
PARK RAPIDS    PTCLDY    52  52 100 CALM      30.20R FOG
ELBOW LAKE     CLOUDY    58  57  96 E3        30.19S
WADENA         CLOUDY    55  55 100 CALM      30.20S
DETROIT LAKES  PTCLDY    55  54  94 CALM      30.20S
MOORHEAD       MOCLDY    55  55 100 CALM      30.19S FOG
FERGUS FALLS   CLOUDY    59  57  94 CALM      30.19S
MORRIS MN      CLOUDY    59  57  94 E3        30.18S
STAPLES        CLOUDY    55  55 100 CALM      30.21R
$$
  *****  WEATHER ELSEWHERE ACROSS MINNESOTA  *****

CITY           SKY/WX    TMP DP  RH WIND       PRES   REMARKS
DULUTH         PTCLDY    51  47  86 NW3       30.20R
INTRNTL FALLS  CLEAR     36  35  96 CALM      30.19S
ELY            CLEAR     45  43  93 CALM      30.20R
CLOQUET        CLEAR     50  48  93 CALM      30.20S FOG
WHEATON        PTCLDY    52  52 100 CALM      30.20S FOG
BRAINERD       CLOUDY    56  55  97 SW3       30.20F
HIBBING        CLOUDY    44  42  93 CALM      30.20S
ALEXANDRIA     CLOUDY    58  56  93 NE3       30.21S
SAINT CLOUD    CLOUDY    59  55  87 CALM      30.20R
MINNEAPOLIS    MOCLDY    62  57  83 NE5       30.18S
$$

  *****  WEATHER ACROSS SOUTH DAKOTA  *****

CITY           SKY/WX    TMP DP  RH WIND       PRES   REMARKS
SIOUX FALLS    MOCLDY    58  56  93 E5        30.16S
BROOKINGS      NOT AVBL
WATERTOWN      CLEAR     56  53  90 E6        30.17F
HURON          CLOUDY    59  57  93 E6        30.14F
SISSETON         N/A     53  53 100 CALM      30.18S
ABERDEEN       MOCLDY    57  55  93 E5        30.16S
MITCHELL       PTCLDY    58  56  93 NE3       30.15R
PIERRE         CLOUDY    60  56  86 E9        30.10F
MOBRIDGE       CLEAR     53  52  96 E7        30.13F
RAPID CITY     MOCLDY    58  54  86 N3        30.14F
$$

  *****  SOME WEATHER IN NEARBY STATES *****

CITY           SKY/WX    TMP DP  RH WIND       PRES   REMARKS
GLASGOW MT     CLEAR     54  50  86 E12       30.05S
GREAT FALLS MT FAIR      54  43  66 S10       30.06F
CHEYENNE WY    CLOUDY    55  50  83 NW3       30.22S
SCOTTSBLUFF NE MOCLDY    62  61  96 S3        30.13F
OMAHA NE       PTCLDY    67  64  90 N7        30.08F
DES MOINES IA  MOCLDY    69  62  78 NE7       30.11F
DAVENPORT IA   CLOUDY    67  64  90 NE8       30.13S
CHICAGO IL     MOCLDY    69  62  78 N6        30.13R
EAU CLAIRE WI  MOCLDY    58  58 100 CALM      30.17F
LA CROSSE WI   CLOUDY    63  58  83 N5        30.16S
$$

  *****  SOME NATIONAL WEATHER *****

CITY           SKY/WX    TMP DP  RH WIND       PRES   REMARKS
LA GUARDIA NY  PTCLDY    73  63  70 CALM      30.02S
RALEIGH NC     PTCLDY    59  57  93 N3        30.06F
ATLANTA GA     CLEAR     68  60  75 E8        30.08S
NEW ORLEANS LA MOCLDY    81  74  79 NE6       29.96S
OKLAHOMA CITY  PTCLDY    72  67  84 S6        30.06F
ALBUQUERQUE NM CLOUDY    61  58  90 W14       30.27R
SALT LAKE CITY MOCLDY    61  52  72 E5        30.17R
LOS ANGELES CA FAIR      68  62  81 CALM      30.00R
BOISE ID       FAIR      64  46  52 SE6       30.09R
SEATTLE WA     FAIR      69  56  62 NE6       30.02R
$$

*** WEATHER ACROSS MANITOBA...SASKATCHEWAN AND ONTARIO ***
                ***ONTARIO***

CITY           SKY/WX    TMP DP  RH WIND       PRES   REMARKS
GERALDTON      CLOUDY    52  48  87 W5        30.09S
THUNDER BAY    CLOUDY    55  52  88 W3        30.15R
SIOUX LOOKOUT  MOCLDY    48  46  93 CALM      30.14
TORONTO        PTCLDY    66  54  63 N12       30.05R
BIG TROUT LK     N/A     46  46 100 N5        30.08S
PICKLE LAKE    NOT AVBL
DRYDEN         PTCLDY    48  46  93 W5        30.16R
KENORA         PTCLDY    50  46  87 W6        30.17S
$$
                *** MANITOBA***

CITY           SKY/WX    TMP DP  RH WIND       PRES   REMARKS
BRANDON        CLEAR     46  45  93 W3        30.12F
DAUPHIN        CLEAR     55  48  76 SW9       30.06S
ISLAND LAKE    PTCLDY    46  46 100 CALM      30.07F
PILOT MOUND      N/A     41  41 100 S5          N/A
THE PAS        CLOUDY    57  50  77 S9        29.89F
THOMPSON       MOCLDY    48  48 100 SE6       29.91F
WINNIPEG       CLEAR     46  45  93 S6        30.14F
LYNN LAKE      CLOUDY    54  48  82 MISG      29.78F
CHURCHILL      PTCLDY    45  41  87 S13       29.89F
GILLAM         CLEAR     41  41 100 SE6       30.00F
$$
                ***SASKATCHEWAN***

CITY           SKY/WX    TMP DP  RH WIND       PRES   REMARKS
ESTEVAN        PTCLDY    54  52  94 S7        30.10S
KINDERSLEY     CLEAR     54  46  76 S7        29.92F
LLOYDMINSTER   MOCLDY    57  48  72 SW9       29.86F
PRINCE ALBERT  CLEAR     55  52  88 SW6       29.87
REGINA         PTCLDY    50  48  93 SE9       30.04S
YORKTON        CLEAR     52  46  82 S9G17     30.03F
N. BATTLEFORD  CLEAR     52  46  82 S3        29.90R
LA RONGE       CLEAR     61  55  82 SW6       29.78
SASKATOON      CLEAR     55  50  82 SW9       29.92F
SWIFT CURRENT  CLEAR     54  46  76 S13       29.99S
$$
NOTE: THESE ARE AUTOMATED STATIONS WITH LIMITED QUALITY CONTROL
      "FAIR" INDICATES FEW OR NO CLOUDS BELOW 12,000 FEET WITH NO
      SIGNIFICANT WEATHER AND/OR OBSTRUCTIONS TO VISIBILITY.
      SKY/WX - SKY CONDITION AND SIGNIFICANT WEATHER.
      TMP - AIR TEMPERATURE.    DP   - DEWPOINT TEMPERATURE.
      RH  - RELATIVE HUMIDITY.  PRES - PRESSURE.
      HX  - HEAT INDEX.         WCI  - WIND CHILL INDEX.
$


USA.gov is the U.S. government's official web portal to all federal, state and local government web resources and services.